Flight Track Log - Related Links

Times and Time Zones

All times are in EDT time to prevent confusion due to time zone crossing. See the UAL4543 flight status page for this flight to view local times or setup timezone preferences in your user account.

Time Position Orientation Groundspeed Altitude Reporting Facility
EDT Latitude Longitude Course Direction KTS MPH feet Rate Location/Type
Wed 08:18:48 PM 40.7167 -74.1500 360° North 174 200 1,200  Level New York TRACON
Wed 08:19:54 PM 40.7667 -74.1500 360° North 239 275 3,200 2,143 Climbing New York TRACON
Wed 08:20:54 PM 40.7833 -74.2333 285° West 249 287 5,700 2,650 Climbing New York TRACON
Wed 08:21:54 PM 40.8000 -74.3167 285° West 245 282 8,500 2,609 Climbing New York TRACON
Wed 08:22:49 PM 40.8333 -74.3833 303° West 253 291 10,700 1,550 Climbing New York TRACON
Wed 08:23:54 PM 40.8500 -74.5000 281° West 296 341 11,600 1,059 Climbing New York TRACON
Wed 08:25:22 PM 40.8683 -74.6647 278° West 344 396 13,400 1,429 Climbing New York Center
Wed 08:26:21 PM 40.8825 -74.7972 278° West 344 396 15,100 1,537 Climbing New York Center
Wed 08:27:23 PM 40.8933 -74.9106 277° West 344 396 16,500 1,377 Climbing New York Center
Wed 08:28:23 PM 40.9069 -75.0486 277° West 349 402 17,900 1,488 Climbing New York Center
Wed 08:29:24 PM 40.9025 -75.1692 267° West 349 402 19,500 1,388 Climbing New York Center
Wed 08:30:24 PM 40.8811 -75.2994 258° West 349 402 20,700 1,613 Climbing New York Center
Wed 08:31:23 PM 40.8542 -75.4047 251° West 349 402 22,700 1,780 Climbing New York Center
Wed 08:32:22 PM 40.8264 -75.5236 253° West 349 402 24,200 1,462 Climbing New York Center
Wed 08:33:22 PM 40.8006 -75.6450 254° West 349 402 25,600 1,438 Climbing New York Center
Wed 08:34:23 PM 40.7728 -75.7636 253° West 344 396 27,100 1,462 Climbing New York Center
Wed 08:35:21 PM 40.7469 -75.8822 254° West 344 396 28,500 1,250 Climbing New York Center
Wed 08:36:23 PM 40.7189 -75.9981 252° West 339 390 29,600 1,171 Climbing New York Center
Wed 08:37:24 PM 40.6925 -76.1192 254° West 339 390 30,900 1,240 Climbing New York Center
Wed 08:38:24 PM 40.6953 -76.2397 272° West 339 390 32,100 1,282 Climbing New York Center
Wed 08:39:21 PM 40.7108 -76.3561 280° West 327 376 33,400 1,210 Climbing New York Center
Wed 08:40:23 PM 40.7242 -76.4694 279° West 327 376 34,500 984 Climbing New York Center
Wed 08:41:23 PM 40.7375 -76.5828 279° West 322 371 35,400 700 Climbing New York Center
Wed 08:42:23 PM 40.7486 -76.6906 278° West 316 364 35,900 298 Climbing New York Center
Wed 08:43:24 PM 40.7617 -76.8069 278° West 316 364 36,000 50 Climbing New York Center
Wed 08:44:22 PM 40.7797 -76.9400 280° West 321 369 36,000  Level New York Center
Wed 08:45:22 PM 40.7936 -77.0703 278° West 339 390 36,000  Level New York Center
Wed 08:46:23 PM 40.8094 -77.2033 279° West 362 417 36,000  Level New York Center
Wed 08:47:23 PM 40.8247 -77.3447 278° West 377 434 36,000  Level New York Center
Wed 08:49:15 PM 40.8542 -77.6156 278° West 418 481 36,000  Level Cleveland Center
Wed 08:50:15 PM 40.8683 -77.7603 277° West 412 474 36,000  Level Cleveland Center
Wed 08:51:15 PM 40.8864 -77.9025 280° West 402 463 36,000  Level Cleveland Center
Wed 08:52:15 PM 40.9000 -78.0447 277° West 402 463 36,000  Level Cleveland Center
Wed 08:53:15 PM 40.9153 -78.1817 278° West 397 457 36,000  Level Cleveland Center
Wed 08:54:15 PM 40.9331 -78.3267 279° West 397 457 36,000  Level Cleveland Center
Wed 08:55:15 PM 40.9461 -78.4692 277° West 397 457 36,000  Level Cleveland Center
Wed 08:56:15 PM 40.9611 -78.6089 278° West 397 457 36,000  Level Cleveland Center
Wed 08:57:15 PM 40.9761 -78.7514 278° West 391 450 36,000  Level Cleveland Center
Wed 08:58:15 PM 40.9886 -78.8942 277° West 391 450 36,000  Level Cleveland Center
Wed 08:59:15 PM 41.0031 -79.0342 278° West 391 450 36,000  Level Cleveland Center
Wed 09:00:15 PM 41.0153 -79.1797 276° West 391 450 36,000  Level Cleveland Center
Wed 09:01:15 PM 41.0294 -79.3169 278° West 391 450 36,000  Level Cleveland Center
Wed 09:02:15 PM 41.0436 -79.4572 278° West 391 450 36,000  Level Cleveland Center
Wed 09:03:15 PM 41.0553 -79.5972 276° West 391 450 36,000  Level Cleveland Center
Wed 09:04:15 PM 41.0689 -79.7350 278° West 391 450 36,000  Level Cleveland Center
Wed 09:05:15 PM 41.0803 -79.8725 276° West 386 444 36,000  Level Cleveland Center
Wed 09:06:15 PM 41.0914 -80.0017 277° West 392 451 36,000  Level Cleveland Center
Wed 09:07:15 PM 41.1044 -80.1394 277° West 387 445 36,000  Level Cleveland Center
Wed 09:08:15 PM 41.1153 -80.2800 276° West 387 445 36,000  Level Cleveland Center
Wed 09:09:15 PM 41.1261 -80.4178 276° West 387 445 36,000  Level Cleveland Center
Wed 09:10:15 PM 41.1386 -80.5719 276° West 387 445 36,000  Level Cleveland Center
Wed 09:11:15 PM 41.1511 -80.7128 277° West 387 445 36,000  Level Cleveland Center
Wed 09:12:15 PM 41.1697 -80.8508 280° West 387 445 36,000  Level Cleveland Center
Wed 09:13:15 PM 41.1964 -80.9914 284° West 393 452 36,000  Level Cleveland Center
Wed 09:14:15 PM 41.2208 -81.1297 283° West 387 445 36,000  Level Cleveland Center
Wed 09:15:15 PM 41.2450 -81.2653 283° West 393 452 36,000  Level Cleveland Center
Wed 09:16:14 PM 41.2692 -81.4064 283° West 393 452 36,000  Level Cleveland Center
Wed 09:17:14 PM 41.2931 -81.5283 285° West 393 452 36,000  Level Cleveland Center
Wed 09:18:15 PM 41.3147 -81.6669 282° West 393 452 36,000  Level Cleveland Center
Wed 09:19:15 PM 41.3428 -81.8028 285° West 393 452 36,000  Level Cleveland Center
Wed 09:20:15 PM 41.3681 -81.9528 283° West 393 452 36,000  Level Cleveland Center
Wed 09:21:15 PM 41.3875 -82.0722 282° West 388 447 36,000  Level Cleveland Center
Wed 09:22:15 PM 41.4103 -82.2278 281° West 388 447 36,000  Level Cleveland Center
Wed 09:23:15 PM 41.4333 -82.3639 283° West 383 441 36,000  Level Cleveland Center
Wed 09:24:14 PM 41.4561 -82.4975 283° West 377 434 36,000  Level Cleveland Center
Wed 09:25:15 PM 41.4767 -82.6311 282° West 372 428 36,000  Level Cleveland Center
Wed 09:26:15 PM 41.4992 -82.7650 283° West 371 427 36,000  Level Cleveland Center
Wed 09:27:15 PM 41.5217 -82.9017 282° West 371 427 36,000  Level Cleveland Center
Wed 09:28:15 PM 41.5400 -83.0189 282° West 371 427 36,000  Level Cleveland Center
Wed 09:29:14 PM 41.5619 -83.1558 282° West 376 433 36,000  Level Cleveland Center
Wed 09:30:15 PM 41.6069 -83.2908 294° West 366 421 36,000  Level Cleveland Center
Wed 09:31:14 PM 41.6708 -83.4047 307° West 366 421 36,000  Level Cleveland Center
Wed 09:32:15 PM 41.7369 -83.5161 309° West 378 435 36,000  Level Cleveland Center
Wed 09:33:15 PM 41.8028 -83.6278 308° West 383 441 36,000  Level Cleveland Center
Wed 09:34:15 PM 41.8606 -83.7253 309° West 383 441 36,000  Level Cleveland Center
Wed 09:35:15 PM 41.9306 -83.8350 311° West 378 435 36,000  Level Cleveland Center
Wed 09:36:15 PM 42.0003 -83.9419 311° West 386 444 36,000  Level Cleveland Center
Wed 09:37:15 PM 42.0425 -84.0728 294° West 386 444 36,000  Level Cleveland Center
Wed 09:38:15 PM 42.0758 -84.2033 289° West 373 429 36,000  Level Cleveland Center
Wed 09:39:15 PM 42.1114 -84.3314 291° West 356 410 36,000  Level Cleveland Center
Wed 09:40:15 PM 42.1369 -84.4392 288° West 346 398 36,000  Level Cleveland Center
Wed 09:41:15 PM 42.1725 -84.5592 292° West 341 392 36,000  Level Cleveland Center
Wed 09:42:15 PM 42.2136 -84.6936 292° West 346 398 36,000  Level Cleveland Center
Wed 09:44:16 PM 42.2908 -84.9528 292° West 378 435 36,000  Level Chicago Center
Wed 09:45:17 PM 42.2881 -85.0872 268° West 363 418 36,000  Level Chicago Center
Wed 09:46:19 PM 42.2867 -85.2192 269° West 354 407 36,000  Level Chicago Center
Wed 09:47:20 PM 42.2847 -85.3550 269° West 360 414 36,000  Level Chicago Center
Wed 09:48:21 PM 42.2825 -85.4919 269° West 364 419 36,000  Level Chicago Center
Wed 09:49:22 PM 42.2811 -85.6278 269° West 361 415 36,000  Level Chicago Center
Wed 09:50:23 PM 42.2789 -85.7622 269° West 359 413 36,000  Level Chicago Center
Wed 09:51:24 PM 42.2764 -85.8994 269° West 363 418 36,000  Level Chicago Center
Wed 09:52:25 PM 42.2656 -86.0436 264° West 358 412 36,000  Level Chicago Center
Wed 09:53:26 PM 42.2558 -86.1778 264° West 360 414 36,000  Level Chicago Center
Wed 09:54:27 PM 42.2450 -86.3144 264° West 366 421 36,000  Level Chicago Center
Wed 09:55:29 PM 42.2333 -86.4550 264° West 375 432 36,000  Level Chicago Center
Wed 09:56:30 PM 42.2228 -86.5967 264° West 381 438 36,000  Level Chicago Center
Wed 09:57:31 PM 42.2108 -86.7586 264° West 379 436 36,000  Level Chicago Center
Wed 09:58:32 PM 42.2014 -86.8964 265° West 375 432 36,000  Level Chicago Center
Wed 09:59:33 PM 42.1886 -87.0275 263° West 361 415 36,000  Level Chicago Center
Wed 10:00:34 PM 42.1906 -87.1567 271° West 354 407 36,000  Level Chicago Center
Wed 10:01:35 PM 42.2328 -87.2819 295° West 370 426 36,000  Level Chicago Center
Wed 10:02:36 PM 42.2756 -87.4117 294° West 377 434 36,000  Level Chicago Center
Wed 10:03:37 PM 42.3297 -87.5692 295° West 387 445 36,000  Level Chicago Center
Wed 10:04:38 PM 42.3739 -87.7039 294° West 392 451 36,000  Level Chicago Center
Wed 10:05:39 PM 42.3958 -87.8425 282° West 384 442 36,000  Level Chicago Center
Wed 10:06:40 PM 42.3703 -87.9756 255° West 363 418 36,000  Level Chicago Center
Wed 10:07:42 PM 42.3511 -88.1133 259° West 368 423 36,000  Level Chicago Center
Wed 10:08:43 PM 42.3319 -88.2489 259° West 367 422 36,000  Level Chicago Center
Wed 10:09:44 PM 42.3139 -88.3775 259° West 365 420 36,000  Level Chicago Center
Wed 10:10:45 PM 42.2947 -88.5131 259° West 369 425 36,000  Level Chicago Center
Wed 10:11:46 PM 42.2756 -88.6478 259° West 369 425 36,000  Level Chicago Center
Wed 10:12:47 PM 42.2522 -88.8125 259° West 374 430 36,000  Level Chicago Center
Wed 10:13:48 PM 42.2336 -88.9353 258° West 377 434 36,000  Level Chicago Center
Wed 10:14:49 PM 42.2136 -89.0736 259° West 375 432 36,000  Level Chicago Center
Wed 10:15:50 PM 42.1894 -89.2364 259° West 379 436 36,000  Level Chicago Center
Wed 10:16:51 PM 42.1692 -89.3728 259° West 373 429 36,000  Level Chicago Center
Wed 10:17:52 PM 42.1489 -89.5069 259° West 367 422 36,000  Level Chicago Center
Wed 10:18:53 PM 42.1289 -89.6397 259° West 363 418 36,000  Level Chicago Center
Wed 10:19:54 PM 42.1086 -89.7717 258° West 360 414 36,000  Level Chicago Center
Wed 10:20:55 PM 42.0897 -89.8986 259° West 350 403 36,000  Level Chicago Center
Wed 10:21:56 PM 42.0714 -90.0114 258° West 343 395 36,000  Level Chicago Center
Wed 10:22:57 PM 42.0522 -90.1369 258° West 346 398 36,000  Level Chicago Center
Wed 10:23:58 PM 42.0267 -90.2989 258° West 368 423 36,000  Level Chicago Center
Wed 10:24:59 PM 42.0044 -90.4361 258° West 377 434 36,000  Level Chicago Center
Wed 10:26:00 PM 41.9831 -90.5725 258° West 375 432 36,000  Level Chicago Center
Wed 10:27:01 PM 41.9589 -90.7150 257° West 391 450 36,000  Level Chicago Center
Wed 10:28:02 PM 41.9358 -90.8508 257° West 379 436 36,000  Level Chicago Center
Wed 10:29:03 PM 41.9133 -90.9889 258° West 381 438 36,000  Level Chicago Center
Wed 10:30:04 PM 41.8897 -91.1308 257° West 390 449 36,000  Level Chicago Center
Wed 10:31:05 PM 41.8664 -91.2722 258° West 390 449 36,000  Level Chicago Center
Wed 10:32:06 PM 41.8414 -91.4142 257° West 392 451 36,000  Level Chicago Center
Wed 10:33:07 PM 41.8186 -91.5528 258° West 385 443 36,000  Level Chicago Center
Wed 10:34:08 PM 41.7950 -91.6889 257° West 377 434 36,000 -393 Level Chicago Center
Wed 10:35:09 PM 41.7656 -91.8544 257° West 383 441 35,200 -1,131 Descending Chicago Center
Wed 10:36:10 PM 41.7425 -91.9914 257° West 381 438 33,700 -1,721 Descending Chicago Center
Wed 10:37:11 PM 41.7175 -92.1278 256° West 380 437 31,700 -2,262 Descending Chicago Center
Wed 10:38:12 PM 41.6936 -92.2686 257° West 388 447 29,100 -2,852 Descending Chicago Center
Wed 10:39:13 PM 41.6678 -92.4078 256° West 388 447 25,900 -3,223 Descending Chicago Center
Wed 10:40:13 PM 41.6436 -92.5450 257° West 384 442 22,600 -3,092 Descending Chicago Center
Wed 10:41:23 PM 41.6169 -92.6892 256° West 376 433 19,200 -2,748 Descending Minneapolis Center
Wed 10:42:24 PM 41.5906 -92.8322 256° West 338 389 16,600 -2,311 Descending Minneapolis Center
Wed 10:43:25 PM 41.5697 -92.9517 257° West 308 354 14,500 -2,000 Descending Minneapolis Center
Wed 10:44:27 PM 41.5514 -93.0497 256° West 277 319 12,500 -1,707 Descending Minneapolis Center
Wed 10:45:28 PM 41.5339 -93.1411 256° West 256 295 11,000 -1,475 Descending Minneapolis Center
Wed 10:46:29 PM 41.5147 -93.2233 253° West 235 270 9,500 -1,475 Descending Minneapolis Center
Wed 10:47:30 PM 41.5008 -93.2972 256° West 210 242 8,000 -1,525 Descending Minneapolis Center
Wed 10:48:31 PM 41.4825 -93.3739 252° West 203 234 6,400 -927 Descending Minneapolis Center
Wed 10:49:33 PM 41.4722 -93.4314 257° West 192 221 6,100 -98 Descending Minneapolis Center
Wed 10:50:34 PM 41.4481 -93.4864 240° Southwest 174 200 6,200  Climbing Minneapolis Center
Wed 10:51:34 PM 41.4242 -93.5469 242° Southwest 183 211 6,100 -595 Descending Minneapolis Center
Wed 10:52:35 PM 41.4003 -93.6075 242° Southwest 186 214 5,000 -1,082 Descending Minneapolis Center
Wed 10:53:36 PM 41.3725 -93.6767 242° Southwest 205 236 3,900 -893 Descending Minneapolis Center
Wed 10:54:36 PM 41.3639 -93.7525 261° West 221 254 3,200 -390 Descending Minneapolis Center
Wed 10:55:39 PM 41.3933 -93.8361 295° West 226 260 3,100 -50 Descending Minneapolis Center
Wed 10:56:37 PM 41.4447 -93.8200 13° North 214 246 3,100  Level Minneapolis Center

Login

Don't have an account? Register now (free) for customized features, flight alerts, and more!